When you browse on this site, cookies collect data to enhance your experience and personalize the content and advertising you see.
Visit our Privacy Policy to learn more. By continuing to use the site, you agree to this use of cookies and data.
  • In United Kingdom
  • List of Countries
  • For 7 days
  • Water Temperature
  • Weather Map
  • Weather Widgets
  • user-avatar
    Login

    Hourly Weather Takhtakupyr

    Today, 20 August, Tuesday

    Time Temperature Precipitation Wind Pressure Humidity
    00:00 +29°C° 0 mm 5 mps 758 mmHg 23%
    01:00 +28°C° 0 mm 5 mps 758 mmHg 23%
    02:00 +28°C° 0 mm 5 mps 758 mmHg 23%
    03:00 +27°C° 0 mm 4 mps 758 mmHg 24%
    04:00 +27°C° 0 mm 4 mps 758 mmHg 24%
    05:00 +28°C° 0 mm 4 mps 758 mmHg 23%
    06:00 +28°C° 0 mm 5 mps 759 mmHg 22%
    07:00 +29°C° 0 mm 5 mps 759 mmHg 21%
    08:00 +33°C° 0 mm 6 mps 759 mmHg 19%
    09:00 +35°C° 0 mm 6 mps 759 mmHg 17%
    10:00 +38°C° 0 mm 7 mps 759 mmHg 14%
    11:00 +39°C° 0 mm 7 mps 759 mmHg 14%
    12:00 +40°C° 0 mm 7 mps 759 mmHg 14%
    13:00 +41°C° 0 mm 6 mps 758 mmHg 14%
    14:00 +41°C° 0 mm 7 mps 758 mmHg 14%
    15:00 +41°C° 0 mm 7 mps 758 mmHg 14%
    16:00 +41°C° 0 mm 7 mps 758 mmHg 14%
    17:00 +39°C° 0 mm 7 mps 757 mmHg 16%
    18:00 +38°C° 0 mm 7 mps 757 mmHg 19%
    19:00 +35°C° 0 mm 8 mps 757 mmHg 21%
    20:00 +34°C° 0 mm 7 mps 757 mmHg 23%
    21:00 +33°C° 0 mm 6 mps 757 mmHg 25%
    22:00 +32°C° 0 mm 5 mps 757 mmHg 27%
    23:00 +32°C° 0 mm 5 mps 756 mmHg 31%

    Tomorrow, 21 August, Wednesday

    Time Temperature Precipitation Wind Pressure Humidity
    00:00 +30°C° 0 mm 6 mps 756 mmHg 35%
    01:00 +29°C° 0 mm 6 mps 756 mmHg 39%
    02:00 +29°C° 0 mm 5 mps 756 mmHg 40%
    03:00 +29°C° 0 mm 5 mps 755 mmHg 42%
    04:00 +28°C° 0 mm 5 mps 755 mmHg 43%
    05:00 +29°C° 0 mm 4 mps 755 mmHg 39%
    06:00 +30°C° 0 mm 4 mps 755 mmHg 34%
    07:00 +32°C° 0 mm 4 mps 756 mmHg 30%
    08:00 +34°C° 0 mm 5 mps 756 mmHg 27%
    09:00 +36°C° 0 mm 7 mps 756 mmHg 24%
    10:00 +39°C° 0 mm 8 mps 756 mmHg 21%
    11:00 +40°C° 0 mm 8 mps 755 mmHg 19%
    12:00 +41°C° 0 mm 8 mps 755 mmHg 17%
    13:00 +43°C° 0 mm 7 mps 754 mmHg 14%
    14:00 +43°C° 0 mm 7 mps 754 mmHg 14%
    15:00 +43°C° 0 mm 7 mps 754 mmHg 14%
    16:00 +43°C° 0 mm 7 mps 754 mmHg 14%
    17:00 +40°C° 0 mm 7 mps 753 mmHg 17%
    18:00 +38°C° 0 mm 7 mps 753 mmHg 20%
    19:00 +36°C° 0 mm 6 mps 753 mmHg 22%
    20:00 +34°C° 0 mm 5 mps 753 mmHg 24%
    21:00 +33°C° 0 mm 4 mps 753 mmHg 26%
    22:00 +31°C° 0 mm 3 mps 753 mmHg 28%
    23:00 +31°C° 0 mm 3 mps 753 mmHg 28%

    Day after tomorrow, 22 August, Thursday

    Time Temperature Precipitation Wind Pressure Humidity
    00:00 +30°C° 0 mm 3 mps 753 mmHg 27%
    01:00 +30°C° 0 mm 3 mps 752 mmHg 27%
    02:00 +30°C° 0 mm 3 mps 752 mmHg 28%
    03:00 +29°C° 0 mm 3 mps 753 mmHg 29%
    04:00 +29°C° 0 mm 3 mps 753 mmHg 31%
    05:00 +29°C° 0 mm 3 mps 753 mmHg 31%
    06:00 +30°C° 0 mm 2 mps 753 mmHg 32%
    07:00 +31°C° 0 mm 2 mps 753 mmHg 33%
    08:00 +34°C° 0 mm 2 mps 753 mmHg 29%
    09:00 +36°C° 0 mm 3 mps 753 mmHg 25%
    10:00 +38°C° 0 mm 4 mps 753 mmHg 22%
    11:00 +40°C° 0 mm 4 mps 753 mmHg 19%
    12:00 +41°C° 0 mm 4 mps 753 mmHg 16%
    13:00 +42°C° 0 mm 5 mps 753 mmHg 13%
    14:00 +42°C° 0 mm 6 mps 753 mmHg 14%
    15:00 +43°C° 0 mm 7 mps 753 mmHg 15%
    16:00 +41°C° 0 mm 8 mps 753 mmHg 15%
    17:00 +39°C° 0 mm 8 mps 753 mmHg 19%
    18:00 +37°C° 0 mm 8 mps 753 mmHg 23%
    19:00 +33°C° 0 mm 8 mps 754 mmHg 27%
    20:00 +32°C° 0 mm 7 mps 754 mmHg 27%
    21:00 +30°C° 0 mm 6 mps 754 mmHg 27%
    22:00 +29°C° 0 mm 6 mps 754 mmHg 26%
    23:00 +28°C° 0 mm 6 mps 754 mmHg 26%

    23 August, Friday

    Time Temperature Precipitation Wind Pressure Humidity
    00:00 +27°C° 0 mm 5 mps 754 mmHg 25%
    01:00 +27°C° 0 mm 5 mps 754 mmHg 24%
    02:00 +26°C° 0 mm 5 mps 754 mmHg 25%
    03:00 +25°C° 0 mm 5 mps 755 mmHg 27%
    04:00 +23°C° 0 mm 5 mps 755 mmHg 29%
    05:00 +23°C° 0 mm 5 mps 755 mmHg 29%
    06:00 +25°C° 0 mm 5 mps 755 mmHg 29%
    07:00 +24°C° 0 mm 6 mps 756 mmHg 28%
    08:00 +27°C° 0 mm 6 mps 756 mmHg 26%
    09:00 +29°C° 0 mm 6 mps 756 mmHg 23%
    10:00 +32°C° 0 mm 6 mps 756 mmHg 20%
    11:00 +33°C° 0 mm 6 mps 756 mmHg 19%
    12:00 +34°C° 0 mm 6 mps 756 mmHg 17%
    13:00 +35°C° 0 mm 6 mps 756 mmHg 16%
    14:00 +35°C° 0 mm 6 mps 756 mmHg 15%
    15:00 +35°C° 0 mm 6 mps 756 mmHg 15%
    16:00 +35°C° 0 mm 6 mps 756 mmHg 14%
    17:00 +34°C° 0 mm 6 mps 756 mmHg 16%
    18:00 +32°C° 0 mm 6 mps 756 mmHg 18%
    19:00 +29°C° 0 mm 6 mps 756 mmHg 20%
    20:00 +28°C° 0 mm 6 mps 756 mmHg 24%
    21:00 +27°C° 0 mm 6 mps 756 mmHg 28%
    22:00 +26°C° 0 mm 6 mps 757 mmHg 32%
    23:00 +26°C° 0 mm 5 mps 756 mmHg 34%

    24 August, Saturday

    Time Temperature Precipitation Wind Pressure Humidity
    00:00 +25°C° 0 mm 4 mps 756 mmHg 35%
    01:00 +23°C° 0 mm 4 mps 756 mmHg 37%
    02:00 +23°C° 0 mm 4 mps 756 mmHg 35%
    03:00 +23°C° 0 mm 4 mps 756 mmHg 33%
    04:00 +22°C° 0 mm 4 mps 756 mmHg 31%
    05:00 +23°C° 0 mm 5 mps 757 mmHg 28%
    06:00 +25°C° 0 mm 5 mps 757 mmHg 26%
    07:00 +26°C° 0 mm 6 mps 757 mmHg 23%
    08:00 +28°C° 0 mm 6 mps 757 mmHg 20%
    09:00 +30°C° 0 mm 7 mps 757 mmHg 17%
    10:00 +33°C° 0 mm 7 mps 757 mmHg 14%
    11:00 +34°C° 0 mm 7 mps 757 mmHg 13%
    12:00 +35°C° 0 mm 6 mps 756 mmHg 12%
    13:00 +36°C° 0 mm 6 mps 756 mmHg 11%
    14:00 +36°C° 0 mm 6 mps 755 mmHg 11%
    15:00 +36°C° 0 mm 6 mps 755 mmHg 10%
    16:00 +36°C° 0 mm 6 mps 755 mmHg 10%
    17:00 +34°C° 0 mm 6 mps 755 mmHg 13%
    18:00 +33°C° 0 mm 6 mps 755 mmHg 15%
    19:00 +30°C° 0 mm 5 mps 755 mmHg 18%
    20:00 +29°C° 0 mm 6 mps 755 mmHg 23%
    21:00 +27°C° 0 mm 6 mps 755 mmHg 28%
    22:00 +26°C° 0 mm 6 mps 755 mmHg 32%
    23:00 +26°C° 0 mm 5 mps 754 mmHg 34%

    25 August, Sunday

    Time Temperature Precipitation Wind Pressure Humidity
    00:00 +25°C° 0 mm 5 mps 754 mmHg 36%
    01:00 +25°C° 0 mm 4 mps 754 mmHg 38%
    02:00 +25°C° 0 mm 4 mps 754 mmHg 33%
    03:00 +23°C° 0 mm 4 mps 754 mmHg 29%
    04:00 +23°C° 0 mm 4 mps 754 mmHg 25%
    05:00 +25°C° 0 mm 4 mps 754 mmHg 24%
    06:00 +26°C° 0 mm 5 mps 754 mmHg 22%
    07:00 +26°C° 0 mm 5 mps 755 mmHg 21%
    08:00 +29°C° 0 mm 5 mps 755 mmHg 18%
    09:00 +32°C° 0 mm 5 mps 755 mmHg 16%
    10:00 +35°C° 0 mm 6 mps 755 mmHg 14%
    11:00 +36°C° 0 mm 6 mps 754 mmHg 13%
    12:00 +36°C° 0 mm 6 mps 754 mmHg 12%
    13:00 +38°C° 0 mm 6 mps 753 mmHg 11%
    14:00 +38°C° 0 mm 6 mps 753 mmHg 11%
    15:00 +39°C° 0 mm 6 mps 753 mmHg 10%
    16:00 +39°C° 0 mm 6 mps 753 mmHg 10%
    17:00 +36°C° 0 mm 6 mps 753 mmHg 15%
    18:00 +33°C° 0 mm 7 mps 753 mmHg 19%
    19:00 +30°C° 0 mm 7 mps 753 mmHg 24%
    20:00 +29°C° 0 mm 7 mps 753 mmHg 28%
    21:00 +28°C° 0 mm 6 mps 753 mmHg 33%
    22:00 +27°C° 0 mm 5 mps 753 mmHg 38%
    23:00 +27°C° 0 mm 5 mps 753 mmHg 38%
    Show more